KUIPER-00088

导读

KUIPER-00088是美国亚马逊“柯伊伯计划”(Project Kuiper)低轨卫星互联网星座中的一颗卫星,于2025年8月11日发射。该计划旨在通过数千颗低轨卫星为全球提供高速低延迟互联网接入,尤其服务偏远地区。作为大规模星座部署的一环,KUIPER-00088将助力项目在2025年底开始商用服务,推动2026年前完成一半卫星发射目标,支撑全球网络覆盖与云通信一体化服务落地。

Basic Information
目录编号:
65133
目录名称:
KUIPER-00088
国际标识:
2025-171B
轨道中心:
EARTH
卫星名称:
KUIPER-00088
卫星全名:
KUIPER-00088
卫星状态:
在轨 (已飞行396 天)
发射日期:
2025-08-11 UTC
国别 :
美国 (US)
星等 :
--
Orbit Information
数据来源 国际轨道数据 AOE轨道数据
星历时间 2026-09-11T00:00:55+0800
13小时前
查看轨道信息
2026-09-07T03:00:00+0800
4天前
查看轨道信息
半长轴 7007.692km 7007.69km
偏心率 0.0000653 0.0001476
轨道倾角 51.899° 51.899°
近地点辐角 109.746° 89.565°
升交点赤经 67.601° 84.739°
平近点角 250.357° 129.676°
近地点 629.097km 628.518km
远地点 630.013km 630.588km
周期 97.302分钟 97.302分钟
每日圈数 14.799271 14.799276
Detailed Information
使用方式:
暂无
2D Orbit Map
3D Orbit Map
Orbit Altitude Analysis Chart
Orbit Inclination Analysis Chart
Orbit Comprehensive Analysis Chart
View Comprehensive Chart
Conjunction Data List
Event ID Objects TCA Miss Dist (km) Collision Risk Probability Collision Risk Index (CRI) Action
CDM_260911-202906-083606-513324
2026-09-11T
20:29:02+0000
0.978 km
远距离
2.835748E-5 中风险 0.64
CDM_260912-155904-481906-513325
2026-09-12T
15:59:37+0000
1.736 km
极远距离
4.150037E-6 低风险 0.47
CDM_260913-065803-942506-513322
2026-09-13T
06:58:54+0000
2.855 km
极远距离
1.382558E-6 低风险 0.38
Miss Distance Evolution Trend with All Objects
Collision Probability Evolution Trend with All Objects